SL-16 DEB, 22605

Orbit data source: Space-Track

SL-16 DEB, 22605 is space debris in LEO originally from a launch on Fri, 26 Mar 1993 UTC launched from the Tyuratam Missile And Space Complex (TTMTR). Debris objects in space refer to the collection of defunct objects orbiting the Earth. Examples of debris include non-operational satellites, rocket bodies, and fragments generated from explosions, collisions, or faulty payload assembly.

Loading next visibility...
Identifier
22605, 1993-016P
Orbit
LEO
Country
Flag of CISCIS
Related business
Manufacturer
Unknown
Mission
Spacecraft
Bus & Motor
Unknown
Mass
Unknown
Launch date (UTC)
1993-03-26 (33 years ago)
Launch vehicle
Unknown
Launch site
Tyuratam Missile And Space Complex (TTMTR)
Object type
Payload
Rocket body
Debris
Shape & HBR
Unknown shape, 0.1 m
Radar Cross Section
Small (<0.1 m²)

Expand to show TLE details & history
Last TLE update: 6 hours ago

TLE from 6 hours ago
0 SL-16 DEB
1 22605U 93016P   25293.59784281  .00000325  00000-0  27525-3 0  9993
2 22605  70.9945 102.6252 0128975  26.9704  39.1471 13.91026341650960
Epoch: 2025-10-20T14:20Z
TLE epoch observation values (Epoch: 2025-10-20T14:20:53.618Z)
Latitude
60.65192°
Longitude
-104.35465°
Altitude
862.267 km
Speed
7.464 km/s
True Right ascension
09h 20m 39s
True Declination
60° 30' 25"
Sunlit
Object was in daylight at epoch
Visualization orbit readout
Latitude
Unknown
Longitude
Unknown
Altitude
Unknown
Speed
Unknown
Apparent Right ascension
Unknown
Apparent Declination
Unknown
Sunlit
N/A
Visualization observer readout
Local Sidereal Time
15:23:42
Azimuth
Unknown
Elevation
Unknown
Doppler factor
Unknown
Orbital elements
Apogee altitude
1,017.151 km
Perigee altitude
828.819 km
Semi-major axis
7,301.122 km
Eccentricity
0.0129
Inclination
70.9945°
RAAN
102.6252°
Arg. of periapsis
26.9704°
True anomaly
40.09191°
Mean anomaly
39.1471°
Eccentric anomaly
39.61832°
Mean motion
3.47903 °/min
Orbital period
103.48 mins
BSTAR
0.00027525
Loading maneuver chart data...
Computing Atmospheric mass density...
Loading historical data...
Loading historical data...
Loading historical data...
Loading historical data...
Loading historical data...
Loading historical data...
Loading historical data...

Documentation

Showing up to 5 results
|